Weather Roundup
Issued by NWS Springfield, MO

Home | Current Version | Previous Version | Text Only | Print | Product List | Glossary On
Versions: 1 2 3 4 5 6 7 8 9 10 11 12 13 14 15 16 17 18 19 20 21 22 23 24 25 26 27 28 29 30 31 32 33 34 35 36 37 38 39 40 41 42 43 44 45 46 47 48 49 50
000
NZUS99 KSGF 041610
HRRSGF

HOURLY WEATHER
NATIONAL WEATHER SERVICE SPRINGFIELD MO
1100 AM CDT TUE AUG 04 2015

......SGF CWA......

CITY           SKY/WX    TMP DP  RH WIND       PRES   REMARKS
SPRINGFIELD    PTSUNNY   86  68  54 S10       30.00F
JOPLIN         CLOUDY    85  66  53 SW12      30.01R
WEST PLAINS    PTSUNNY   87  69  54 SW9       30.04S HX  91
ROLLA          PTSUNNY   83  71  67 S6        30.00S
OSAGE BEACH    PTSUNNY   84  68  58 CALM      30.00S
BRANSON        CLOUDY    86  68  54 S3        30.04S

......SURROUNDING SGF CWA......

CITY           SKY/WX    TMP DP  RH WIND       PRES   REMARKS
CHANUTE        CLOUDY    82  70  66 W10       29.99S
PARSONS        CLOUDY    81  72  74 SW7       30.01R
COFFEYVILLE    CLOUDY    82  70  66 SW7       29.99R
EMPORIA        CLOUDY    80  69  69 S9        29.97S
GROVE OK       CLOUDY    84  68  58 SW10      30.02R
ROGERS AR      CLOUDY    86  69  56 SE7       30.04S HX  90
SILOAM SPRINGS CLOUDY    84  66  54 S7        30.02R
HARRISON AR    PTSUNNY   86  69  56 S7        30.04S HX  90
NEAR YELLVILLE MOSUNNY   84  70  61 S3        30.00S

......KANSAS AND MISSOURI......

CITY           SKY/WX    TMP DP  RH WIND       PRES   REMARKS
KANSAS CTY INT CLOUDY    83  71  67 CALM      30.00R
DOWNTOWN KC    PTSUNNY   87  70  56 N3        29.97S HX  92
COLUMBIA       SUNNY     81  71  71 S7        30.00S
SEDALIA        MOSUNNY   83  71  67 CALM      30.01R
ST JOSEPH      PTSUNNY   74  67  78 NE13      30.03R
ST LOUIS       PTSUNNY   85  67  54 S10       29.99F
SPIRIT OF STL  PTSUNNY   82  70  66 VRB6      29.97S
KIRKSVILLE     RAIN      67  64  90 W8        30.09R FOG
WICHITA        CLOUDY    78  68  71 S12       29.98R
TOPEKA         CLOUDY    81  72  74 CALM      29.99R
OLATHE         PTSUNNY   83  70  64 S5        29.99R

......TENNESSEE......

CITY           SKY/WX    TMP DP  RH WIND       PRES   REMARKS
MEMPHIS        MOSUNNY   93  68  43 W6        30.01S HX  97
NASHVILLE      MOSUNNY   92  67  43 W3        30.03S HX  95

......ARKANSAS.......

CITY           SKY/WX    TMP DP  RH WIND       PRES   REMARKS
FAYETTEVILLE   PTSUNNY   83  70  64 S9        30.03S
FT SMITH       MOSUNNY   87  70  56 E7        29.98S HX  92
LITTLE ROCK    MOSUNNY   91  69  48 SE6       30.01S HX  96

......OKLAHOMA.......

CITY           SKY/WX    TMP DP  RH WIND       PRES   REMARKS
TULSA          LGT RAIN  80  68  66 SW9       29.98R
PONCA CITY     LGT RAIN  74  70  87 S7        29.99F
MCALESTER      PTSUNNY   84  67  56 NW5       30.02S
OKLAHOMA CITY  PTSUNNY   74  71  91 S15       29.98S

......IOWA............

CITY           SKY/WX    TMP DP  RH WIND       PRES   REMARKS
DES MOINES     CLOUDY    73  58  59 CALM      30.04S
QUAD CITIES    PTSUNNY   79  60  52 NW8       30.00F

......ILLINOIS........

CITY           SKY/WX    TMP DP  RH WIND       PRES   REMARKS
QUINCY         CLOUDY    76  61  59 SE6       30.02S
CHICAGO        PTSUNNY   78  50  37 W15G21    29.97S




USA.gov is the U.S. government's official web portal to all federal, state and local government web resources and services.